Location: Erlenbrunn
(49.1717°N, 7.6142°E)
Time: 05:43:57
(UTC+00:00)

H-2A R/B - Pass Details

Date: 25 November 2020
Orbit: 578 x 654 km, 98.5° (Epoch: 27 January)

Event Time Altitude Azimuth Distance (km) Brightness Sun altitude
Rises 16:14:07 0° 20° (NNE) 2,824 5.0 -6.1°
Reaches altitude 10° 16:16:22 10° 28° (NNE) 1,927 4.1 -6.4°
Maximum altitude 16:20:19 41° 99° (E) 879 2.5 -7.0°
Drops below altitude 10° 16:24:19 10° 170° (S) 1,949 4.8 -7.6°
Sets 16:26:36 0° 178° (S) 2,861 5.8 -7.9°
